"datetime","temp","dp","rain_mm","uv","solar","mb","wind_mph","gust_mph","windchill","rh"
"2021-08-24 00:00:00",11.8,11.2,0.0,0.0,0,1027.9,0,1,"",96
"2021-08-24 00:01:00",11.8,11.2,0.0,0.0,0,1027.9,0,0,"",96
"2021-08-24 00:02:00",11.8,11.2,0.0,0.0,0,1027.9,0,3,"",96
"2021-08-24 00:03:00",11.8,11.2,0.0,0.0,0,1027.9,1,2,"",96
"2021-08-24 00:04:00",11.8,11.2,0.0,0.0,0,1027.9,0,0,"",96
"2021-08-24 00:05:00",11.8,11.2,0.0,0.0,0,1027.9,0,1,"",96
"2021-08-24 00:06:00",11.7,11.1,0.0,0.0,0,1027.9,0,1,"",96
"2021-08-24 00:07:00",11.7,11.1,0.0,0.0,0,1027.9,0,0,"",96
"2021-08-24 00:08:00",11.7,11.1,0.0,0.0,0,1028.0,0,0,"",96
"2021-08-24 00:09:00",11.7,11.1,0.0,0.0,0,1027.9,0,0,"",96
"2021-08-24 00:10:00",11.7,11.1,0.0,0.0,0,1028.0,0,0,"",96
"2021-08-24 00:11:00",11.7,11.1,0.0,0.0,0,1027.9,0,0,"",96
"2021-08-24 00:12:00",11.7,11.1,0.0,0.0,0,1027.9,0,0,"",96
"2021-08-24 00:13:00",11.7,11.1,0.0,0.0,0,1028.0,0,1,"",96
"2021-08-24 00:14:00",11.7,11.1,0.0,0.0,0,1028.0,0,0,"",96
"2021-08-24 00:15:00",11.7,11.1,0.0,0.0,0,1028.0,0,0,"",96
"2021-08-24 00:16:00",11.7,11.1,0.0,0.0,0,1028.0,0,0,"",96
"2021-08-24 00:17:00",11.6,11.0,0.0,0.0,0,1028.0,0,0,"",96
"2021-08-24 00:18:00",11.6,11.0,0.0,0.0,0,1028.0,0,0,"",96
"2021-08-24 00:19:00",11.6,11.0,0.0,0.0,0,1028.0,0,0,"",96
"2021-08-24 00:20:00",11.7,11.1,0.0,0.0,0,1028.0,0,0,"",96
"2021-08-24 00:21:00",11.6,11.0,0.0,0.0,0,1028.0,0,0,"",96
"2021-08-24 00:22:00",11.6,11.0,0.0,0.0,0,1028.0,0,0,"",96
"2021-08-24 00:23:00",11.6,11.0,0.0,0.0,0,1028.1,0,1,"",96
"2021-08-24 00:24:00",11.6,11.0,0.0,0.0,0,1028.0,0,0,"",96
"2021-08-24 00:25:00",11.5,10.9,0.0,0.0,0,1028.0,0,1,"",96
"2021-08-24 00:26:00",11.5,10.9,0.0,0.0,0,1028.0,0,0,"",96
"2021-08-24 00:27:00",11.5,10.9,0.0,0.0,0,1028.0,0,0,"",96
"2021-08-24 00:28:00",11.5,10.9,0.0,0.0,0,1028.0,0,0,"",96
"2021-08-24 00:29:00",11.5,10.9,0.0,0.0,0,1028.0,0,0,"",96
"2021-08-24 00:30:00",11.4,10.8,0.0,0.0,0,1028.1,0,0,"",96
"2021-08-24 00:31:00",11.4,10.8,0.0,0.0,0,1028.1,0,0,"",96
"2021-08-24 00:32:00",11.4,10.8,0.0,0.0,0,1028.1,0,0,"",96
"2021-08-24 00:33:00",11.4,10.8,0.0,0.0,0,1028.0,0,0,"",96
"2021-08-24 00:34:00",11.4,10.8,0.0,0.0,0,1028.1,0,0,"",96
"2021-08-24 00:35:00",11.4,10.8,0.0,0.0,0,1028.0,0,0,"",96
"2021-08-24 00:36:00",11.3,10.7,0.0,0.0,0,1028.0,0,0,"",96
"2021-08-24 00:37:00",11.3,10.7,0.0,0.0,0,1028.0,0,0,"",96
"2021-08-24 00:38:00",11.3,10.7,0.0,0.0,0,1028.0,0,0,"",96
"2021-08-24 00:39:00",11.2,10.6,0.0,0.0,0,1028.1,0,0,"",96
"2021-08-24 00:40:00",11.2,10.6,0.0,0.0,0,1028.0,0,0,"",96
"2021-08-24 00:41:00",11.2,10.6,0.0,0.0,0,1028.1,0,0,"",96
"2021-08-24 00:42:00",11.2,10.6,0.0,0.0,0,1028.1,0,0,"",96
"2021-08-24 00:43:00",11.1,10.5,0.0,0.0,0,1028.1,0,0,"",96
"2021-08-24 00:44:00",11.1,10.5,0.0,0.0,0,1028.1,0,1,"",96
"2021-08-24 00:45:00",11.1,10.5,0.0,0.0,0,1028.1,0,1,"",96
"2021-08-24 00:46:00",11.0,10.4,0.0,0.0,0,1028.1,0,1,"",96
"2021-08-24 00:47:00",10.9,10.3,0.0,0.0,0,1028.1,0,0,"",96
"2021-08-24 00:48:00",10.9,10.3,0.0,0.0,0,1028.0,0,0,"",96
"2021-08-24 00:49:00",10.9,10.3,0.0,0.0,0,1028.1,0,0,"",96
"2021-08-24 00:50:00",10.9,10.3,0.0,0.0,0,1028.1,0,0,"",96
"2021-08-24 00:51:00",11.0,10.4,0.0,0.0,0,1028.0,0,0,"",96
"2021-08-24 00:52:00",10.9,10.3,0.0,0.0,0,1028.1,0,0,"",96
"2021-08-24 00:53:00",11.1,10.5,0.0,0.0,0,1028.1,0,2,"",96
"2021-08-24 00:54:00",11.1,10.5,0.0,0.0,0,1028.1,0,0,"",96
"2021-08-24 00:55:00",11.0,10.4,0.0,0.0,0,1028.1,0,1,"",96
"2021-08-24 00:56:00",10.9,10.3,0.0,0.0,0,1028.1,0,0,"",96
"2021-08-24 00:57:00",10.9,10.3,0.0,0.0,0,1028.1,0,0,"",96
"2021-08-24 00:58:00",10.9,10.3,0.0,0.0,0,1028.0,0,0,"",96
"2021-08-24 00:59:00",10.8,10.2,0.0,0.0,0,1028.1,0,0,"",96
"2021-08-24 01:00:00",10.8,10.2,0.0,0.0,0,1028.1,0,0,"",96
"2021-08-24 01:01:00",10.8,10.2,0.0,0.0,0,1028.1,0,0,"",96
"2021-08-24 01:02:00",10.8,10.2,0.0,0.0,0,1028.1,0,0,"",96
"2021-08-24 01:03:00",10.8,10.2,0.0,0.0,0,1028.1,0,0,"",96
"2021-08-24 01:04:00",10.8,10.2,0.0,0.0,0,1028.1,0,0,"",96
"2021-08-24 01:05:00",10.8,10.2,0.0,0.0,0,1028.1,0,1,"",96
"2021-08-24 01:06:00",10.8,10.2,0.0,0.0,0,1028.1,0,0,"",96
"2021-08-24 01:07:00",10.8,10.2,0.0,0.0,0,1028.1,0,0,"",96
"2021-08-24 01:08:00",10.8,10.2,0.0,0.0,0,1028.0,0,1,"",96
"2021-08-24 01:09:00",10.8,10.2,0.0,0.0,0,1028.0,0,0,"",96
"2021-08-24 01:10:00",10.7,10.1,0.0,0.0,0,1028.0,0,0,"",96
"2021-08-24 01:11:00",10.7,10.1,0.0,0.0,0,1028.0,0,0,"",96
"2021-08-24 01:12:00",10.7,10.1,0.0,0.0,0,1028.0,0,0,"",96
"2021-08-24 01:13:00",10.6,10.0,0.0,0.0,0,1028.0,0,1,"",96
"2021-08-24 01:14:00",10.7,10.1,0.0,0.0,0,1028.0,0,2,"",96
"2021-08-24 01:15:00",10.7,10.1,0.0,0.0,0,1028.1,0,1,"",96
"2021-08-24 01:16:00",10.7,10.1,0.0,0.0,0,1028.0,0,1,"",96
"2021-08-24 01:17:00",10.7,10.1,0.0,0.0,0,1028.0,0,1,"",96
"2021-08-24 01:18:00",10.7,10.1,0.0,0.0,0,1028.0,0,1,"",96
"2021-08-24 01:19:00",10.6,10.0,0.0,0.0,0,1028.0,0,1,"",96
"2021-08-24 01:20:00",10.7,10.1,0.0,0.0,0,1028.0,0,1,"",96
"2021-08-24 01:21:00",10.7,10.1,0.0,0.0,0,1028.0,0,1,"",96
"2021-08-24 01:22:00",10.7,10.1,0.0,0.0,0,1027.9,0,1,"",96
"2021-08-24 01:23:00",10.6,10.0,0.0,0.0,0,1028.0,1,1,"",96
"2021-08-24 01:24:00",10.6,10.0,0.0,0.0,0,1027.9,1,1,"",96
"2021-08-24 01:25:00",10.6,10.0,0.0,0.0,0,1027.9,0,1,"",96
"2021-08-24 01:26:00",10.6,10.0,0.0,0.0,0,1027.9,1,1,"",96
"2021-08-24 01:27:00",10.6,10.0,0.0,0.0,0,1027.9,1,1,"",96
"2021-08-24 01:28:00",10.6,10.0,0.0,0.0,0,1027.9,0,1,"",96
"2021-08-24 01:29:00",10.7,10.1,0.0,0.0,0,1027.9,0,1,"",96
"2021-08-24 01:30:00",10.6,10.0,0.0,0.0,0,1027.9,1,2,"",96
"2021-08-24 01:31:00",10.6,10.0,0.0,0.0,0,1027.9,0,1,"",96
"2021-08-24 01:32:00",10.6,10.0,0.0,0.0,0,1028.0,1,1,"",96
"2021-08-24 01:33:00",10.7,10.2,0.0,0.0,0,1028.0,1,1,"",97
"2021-08-24 01:34:00",10.7,10.1,0.0,0.0,0,1028.0,1,2,"",96
"2021-08-24 01:35:00",10.7,10.2,0.0,0.0,0,1027.9,0,1,"",97
"2021-08-24 01:36:00",10.7,10.1,0.0,0.0,0,1027.9,1,2,"",96
"2021-08-24 01:37:00",10.7,10.1,0.0,0.0,0,1027.9,0,1,"",96
"2021-08-24 01:38:00",10.7,10.1,0.0,0.0,0,1028.0,0,1,"",96
"2021-08-24 01:39:00",10.7,10.1,0.0,0.0,0,1028.0,0,1,"",96
"2021-08-24 01:40:00",10.7,10.2,0.0,0.0,0,1028.0,0,1,"",97
"2021-08-24 01:41:00",10.8,10.3,0.0,0.0,0,1028.0,0,1,"",97
"2021-08-24 01:42:00",10.8,10.3,0.0,0.0,0,1028.0,1,2,"",97
"2021-08-24 01:43:00",10.8,10.3,0.0,0.0,0,1028.0,0,1,"",97
"2021-08-24 01:44:00",10.7,10.2,0.0,0.0,0,1028.1,0,1,"",97
"2021-08-24 01:45:00",10.7,10.2,0.0,0.0,0,1028.1,0,1,"",97
"2021-08-24 01:46:00",10.7,10.2,0.0,0.0,0,1028.0,1,1,"",97
"2021-08-24 01:47:00",10.8,10.3,0.0,0.0,0,1028.0,0,1,"",97
"2021-08-24 01:48:00",10.7,10.2,0.0,0.0,0,1028.0,0,0,"",97
"2021-08-24 01:49:00",10.7,10.2,0.0,0.0,0,1028.0,0,0,"",97
"2021-08-24 01:50:00",10.7,10.2,0.0,0.0,0,1028.1,0,0,"",97
"2021-08-24 01:51:00",10.7,10.2,0.0,0.0,0,1028.1,0,0,"",97
"2021-08-24 01:52:00",10.7,10.2,0.0,0.0,0,1028.0,0,0,"",97
"2021-08-24 01:53:00",10.8,10.3,0.0,0.0,0,1028.1,0,0,"",97
"2021-08-24 01:54:00",10.7,10.2,0.0,0.0,0,1028.1,0,0,"",97
"2021-08-24 01:55:00",10.7,10.2,0.0,0.0,0,1028.0,0,0,"",97
"2021-08-24 01:56:00",10.7,10.2,0.0,0.0,0,1028.1,0,0,"",97
"2021-08-24 01:57:00",10.6,10.0,0.0,0.0,0,1028.1,0,1,"",96
"2021-08-24 01:58:00",10.6,10.0,0.0,0.0,0,1028.1,0,1,"",96
"2021-08-24 01:59:00",10.6,10.0,0.0,0.0,0,1028.1,0,1,"",96
"2021-08-24 02:00:00",10.6,10.0,0.0,0.0,0,1028.1,0,0,"",96
"2021-08-24 02:01:00",10.6,10.0,0.0,0.0,0,1028.1,0,1,"",96
"2021-08-24 02:02:00",10.5,9.9,0.0,0.0,0,1028.1,0,0,"",96
"2021-08-24 02:03:00",10.5,9.9,0.0,0.0,0,1028.2,0,0,"",96
"2021-08-24 02:04:00",10.6,10.1,0.0,0.0,0,1028.2,0,1,"",97
"2021-08-24 02:05:00",10.6,10.1,0.0,0.0,0,1028.2,0,1,"",97
"2021-08-24 02:06:00",10.6,10.1,0.0,0.0,0,1028.2,0,0,"",97
"2021-08-24 02:07:00",10.7,10.2,0.0,0.0,0,1028.2,0,0,"",97
"2021-08-24 02:08:00",10.7,10.2,0.0,0.0,0,1028.2,0,0,"",97
"2021-08-24 02:09:00",10.8,10.3,0.0,0.0,0,1028.2,0,0,"",97
"2021-08-24 02:10:00",10.8,10.3,0.0,0.0,0,1028.2,0,0,"",97
"2021-08-24 02:11:00",10.8,10.3,0.0,0.0,0,1028.2,0,0,"",97
"2021-08-24 02:12:00",10.8,10.3,0.0,0.0,0,1028.2,0,1,"",97
"2021-08-24 02:13:00",10.7,10.2,0.0,0.0,0,1028.1,0,0,"",97
"2021-08-24 02:14:00",10.8,10.3,0.0,0.0,0,1028.2,0,1,"",97
"2021-08-24 02:15:00",10.7,10.2,0.0,0.0,0,1028.2,0,0,"",97
"2021-08-24 02:16:00",10.6,10.0,0.0,0.0,0,1028.2,0,0,"",96
"2021-08-24 02:17:00",10.6,10.0,0.0,0.0,0,1028.2,0,1,"",96
"2021-08-24 02:18:00",10.5,9.9,0.0,0.0,0,1028.2,0,0,"",96
"2021-08-24 02:19:00",10.5,9.9,0.0,0.0,0,1028.2,0,1,"",96
"2021-08-24 02:20:00",10.4,9.8,0.0,0.0,0,1028.2,0,1,"",96
"2021-08-24 02:21:00",10.4,9.8,0.0,0.0,0,1028.2,1,2,"",96
"2021-08-24 02:22:00",10.4,9.8,0.0,0.0,0,1028.2,0,1,"",96
"2021-08-24 02:23:00",10.4,9.8,0.0,0.0,0,1028.2,0,1,"",96
"2021-08-24 02:24:00",10.3,9.7,0.0,0.0,0,1028.2,0,0,"",96
"2021-08-24 02:25:00",10.4,9.9,0.0,0.0,0,1028.2,0,0,"",97
"2021-08-24 02:26:00",10.4,9.9,0.0,0.0,0,1028.2,0,0,"",97
"2021-08-24 02:27:00",10.4,9.9,0.0,0.0,0,1028.2,0,1,"",97
"2021-08-24 02:28:00",10.4,9.9,0.0,0.0,0,1028.1,0,0,"",97
"2021-08-24 02:29:00",10.4,9.9,0.0,0.0,0,1028.2,0,0,"",97
"2021-08-24 02:30:00",10.4,9.9,0.0,0.0,0,1028.2,0,0,"",97
"2021-08-24 02:31:00",10.4,9.9,0.0,0.0,0,1028.1,0,0,"",97
"2021-08-24 02:32:00",10.4,9.9,0.0,0.0,0,1028.1,0,1,"",97
"2021-08-24 02:33:00",10.3,9.7,0.0,0.0,0,1028.1,0,1,"",96
"2021-08-24 02:34:00",10.3,9.7,0.0,0.0,0,1028.1,0,1,"",96
"2021-08-24 02:35:00",10.3,9.7,0.0,0.0,0,1028.1,0,0,"",96
"2021-08-24 02:36:00",10.3,9.7,0.0,0.0,0,1028.0,0,1,"",96
"2021-08-24 02:37:00",10.2,9.6,0.0,0.0,0,1028.1,0,1,"",96
"2021-08-24 02:38:00",10.2,9.6,0.0,0.0,0,1028.0,0,0,"",96
"2021-08-24 02:39:00",10.2,9.6,0.0,0.0,0,1028.1,0,0,"",96
"2021-08-24 02:40:00",10.2,9.6,0.0,0.0,0,1028.0,0,1,"",96
"2021-08-24 02:41:00",10.2,9.6,0.0,0.0,0,1028.1,0,1,"",96
"2021-08-24 02:42:00",10.1,9.5,0.0,0.0,0,1028.1,0,1,"",96
"2021-08-24 02:43:00",10.2,9.7,0.0,0.0,0,1028.1,0,1,"",97
"2021-08-24 02:44:00",10.2,9.7,0.0,0.0,0,1028.0,0,1,"",97
"2021-08-24 02:45:00",10.2,9.6,0.0,0.0,0,1028.1,0,0,"",96
"2021-08-24 02:46:00",10.2,9.6,0.0,0.0,0,1028.1,0,1,"",96
"2021-08-24 02:47:00",10.2,9.6,0.0,0.0,0,1028.1,0,0,"",96
"2021-08-24 02:48:00",10.2,9.6,0.0,0.0,0,1028.1,0,0,"",96
"2021-08-24 02:49:00",10.2,9.7,0.0,0.0,0,1028.1,0,0,"",97
"2021-08-24 02:50:00",10.2,9.7,0.0,0.0,0,1028.1,0,1,"",97
"2021-08-24 02:51:00",10.2,9.7,0.0,0.0,0,1028.1,0,0,"",97
"2021-08-24 02:52:00",10.3,9.8,0.0,0.0,0,1028.1,0,1,"",97
"2021-08-24 02:53:00",10.3,9.8,0.0,0.0,0,1028.1,0,1,"",97
"2021-08-24 02:54:00",10.3,9.8,0.0,0.0,0,1028.1,0,1,"",97
"2021-08-24 02:55:00",10.3,9.8,0.0,0.0,0,1028.1,0,0,"",97
"2021-08-24 02:56:00",10.4,9.9,0.0,0.0,0,1028.1,0,1,"",97
"2021-08-24 02:57:00",10.4,9.9,0.0,0.0,0,1028.1,0,1,"",97
"2021-08-24 02:58:00",10.5,10.0,0.0,0.0,0,1028.1,0,1,"",97
"2021-08-24 02:59:00",10.6,10.1,0.0,0.0,0,1028.1,0,1,"",97
"2021-08-24 03:00:00",10.7,10.2,0.0,0.0,0,1028.1,0,0,"",97
"2021-08-24 03:01:00",10.8,10.3,0.0,0.0,0,1028.1,0,0,"",97
"2021-08-24 03:02:00",10.8,10.3,0.0,0.0,0,1028.1,0,1,"",97
"2021-08-24 03:03:00",10.9,10.4,0.0,0.0,0,1028.1,0,1,"",97
"2021-08-24 03:04:00",10.9,10.4,0.0,0.0,0,1028.2,0,0,"",97
"2021-08-24 03:05:00",11.1,10.6,0.0,0.0,0,1028.1,0,1,"",97
"2021-08-24 03:06:00",11.1,10.6,0.0,0.0,0,1028.1,0,0,"",97
"2021-08-24 03:07:00",11.2,10.7,0.0,0.0,0,1028.1,1,2,"",97
"2021-08-24 03:08:00",11.2,10.7,0.0,0.0,0,1028.1,0,1,"",97
"2021-08-24 03:09:00",11.3,10.8,0.0,0.0,0,1028.1,0,1,"",97
"2021-08-24 03:10:00",11.3,10.8,0.0,0.0,0,1028.1,0,0,"",97
"2021-08-24 03:11:00",11.4,10.9,0.0,0.0,0,1028.1,0,0,"",97
"2021-08-24 03:12:00",11.4,10.9,0.0,0.0,0,1028.1,0,2,"",97
"2021-08-24 03:13:00",11.4,10.9,0.0,0.0,0,1028.1,0,1,"",97
"2021-08-24 03:14:00",11.5,11.0,0.0,0.0,0,1028.1,0,1,"",97
"2021-08-24 03:15:00",11.6,11.1,0.0,0.0,0,1028.0,0,1,"",97
"2021-08-24 03:16:00",11.6,11.1,0.0,0.0,0,1028.0,0,1,"",97
"2021-08-24 03:17:00",11.6,11.1,0.0,0.0,0,1028.0,1,3,"",97
"2021-08-24 03:18:00",11.7,11.2,0.0,0.0,0,1028.0,0,1,"",97
"2021-08-24 03:19:00",11.7,11.2,0.0,0.0,0,1028.0,0,1,"",97
"2021-08-24 03:20:00",11.8,11.3,0.0,0.0,0,1028.0,0,1,"",97
"2021-08-24 03:21:00",11.9,11.4,0.0,0.0,0,1028.0,1,1,"",97
"2021-08-24 03:22:00",11.9,11.4,0.0,0.0,0,1028.0,1,2,"",97
"2021-08-24 03:23:00",12.0,11.5,0.0,0.0,0,1028.0,0,1,"",97
"2021-08-24 03:24:00",12.0,11.5,0.0,0.0,0,1028.0,0,1,"",97
"2021-08-24 03:25:00",12.1,11.6,0.0,0.0,0,1028.0,0,2,"",97
"2021-08-24 03:26:00",12.1,11.6,0.0,0.0,0,1028.1,1,4,"",97
"2021-08-24 03:27:00",12.2,11.7,0.0,0.0,0,1028.0,1,4,"",97
"2021-08-24 03:28:00",12.3,11.8,0.0,0.0,0,1028.0,0,1,"",97
"2021-08-24 03:29:00",12.3,11.8,0.0,0.0,0,1028.1,1,3,"",97
"2021-08-24 03:30:00",12.5,12.0,0.0,0.0,0,1028.1,1,2,"",97
"2021-08-24 03:31:00",12.6,12.3,0.0,0.0,0,1028.1,0,1,"",98
"2021-08-24 03:32:00",12.6,12.1,0.0,0.0,0,1028.1,1,3,"",97
"2021-08-24 03:33:00",12.7,12.2,0.0,0.0,0,1028.0,1,2,"",97
"2021-08-24 03:34:00",12.8,12.3,0.0,0.0,0,1028.1,1,2,"",97
"2021-08-24 03:35:00",12.8,12.3,0.0,0.0,0,1028.1,0,1,"",97
"2021-08-24 03:36:00",12.8,12.3,0.0,0.0,0,1028.1,1,2,"",97
"2021-08-24 03:37:00",12.9,12.4,0.0,0.0,0,1028.1,1,2,"",97
"2021-08-24 03:38:00",12.9,12.4,0.0,0.0,0,1028.1,1,2,"",97
"2021-08-24 03:39:00",13.0,12.5,0.0,0.0,0,1028.1,0,1,"",97
"2021-08-24 03:40:00",13.0,12.5,0.0,0.0,0,1028.1,1,2,"",97
"2021-08-24 03:41:00",13.1,12.6,0.0,0.0,0,1028.1,1,3,"",97
"2021-08-24 03:42:00",13.1,12.6,0.0,0.0,0,1028.1,0,1,"",97
"2021-08-24 03:43:00",13.1,12.6,0.0,0.0,0,1028.2,1,1,"",97
"2021-08-24 03:44:00",13.1,12.6,0.0,0.0,0,1028.2,0,1,"",97
"2021-08-24 03:45:00",13.1,12.5,0.0,0.0,0,1028.1,0,1,"",96
"2021-08-24 03:46:00",13.1,12.5,0.0,0.0,0,1028.2,1,2,"",96
"2021-08-24 03:47:00",13.2,12.6,0.0,0.0,0,1028.2,0,1,"",96
"2021-08-24 03:48:00",13.2,12.7,0.0,0.0,0,1028.2,0,1,"",97
"2021-08-24 03:49:00",13.2,12.6,0.0,0.0,0,1028.2,1,2,"",96
"2021-08-24 03:50:00",13.2,12.6,0.0,0.0,0,1028.2,0,1,"",96
"2021-08-24 03:51:00",13.3,12.7,0.0,0.0,0,1028.2,0,1,"",96
"2021-08-24 03:52:00",13.3,12.7,0.0,0.0,0,1028.2,1,3,"",96
"2021-08-24 03:53:00",13.3,12.7,0.0,0.0,0,1028.1,1,2,"",96
"2021-08-24 03:54:00",13.4,12.8,0.0,0.0,0,1028.2,0,1,"",96
"2021-08-24 03:55:00",13.4,12.8,0.0,0.0,0,1028.1,0,1,"",96
"2021-08-24 03:56:00",13.4,12.8,0.0,0.0,0,1028.2,0,2,"",96
"2021-08-24 03:57:00",13.4,12.8,0.0,0.0,0,1028.1,0,1,"",96
"2021-08-24 03:58:00",13.4,12.8,0.0,0.0,0,1028.1,0,1,"",96
"2021-08-24 03:59:00",13.4,12.8,0.0,0.0,0,1028.1,0,1,"",96
"2021-08-24 04:00:00",13.4,12.8,0.0,0.0,0,1028.1,0,2,"",96
"2021-08-24 04:01:00",13.4,12.8,0.0,0.0,0,1028.2,0,1,"",96
"2021-08-24 04:02:00",13.4,12.8,0.0,0.0,0,1028.2,1,1,"",96
"2021-08-24 04:03:00",13.4,12.8,0.0,0.0,0,1028.2,0,1,"",96
"2021-08-24 04:04:00",13.4,12.8,0.0,0.0,0,1028.2,1,4,"",96
"2021-08-24 04:05:00",13.4,12.8,0.0,0.0,0,1028.2,1,2,"",96
"2021-08-24 04:06:00",13.5,12.9,0.0,0.0,0,1028.2,0,1,"",96
"2021-08-24 04:07:00",13.5,12.9,0.0,0.0,0,1028.2,0,1,"",96
"2021-08-24 04:08:00",13.5,12.9,0.0,0.0,0,1028.2,0,1,"",96
"2021-08-24 04:09:00",13.6,13.0,0.0,0.0,0,1028.1,1,3,"",96
"2021-08-24 04:10:00",13.6,13.0,0.0,0.0,0,1028.2,2,6,"",96
"2021-08-24 04:11:00",13.6,13.0,0.0,0.0,0,1028.2,2,3,"",96
"2021-08-24 04:12:00",13.6,13.0,0.0,0.0,0,1028.2,0,2,"",96
"2021-08-24 04:13:00",13.6,13.0,0.0,0.0,0,1028.2,0,1,"",96
"2021-08-24 04:14:00",13.6,13.0,0.0,0.0,0,1028.1,1,2,"",96
"2021-08-24 04:15:00",13.7,12.9,0.0,0.0,0,1028.2,1,2,"",95
"2021-08-24 04:16:00",13.7,13.1,0.0,0.0,0,1028.2,2,3,"",96
"2021-08-24 04:17:00",13.7,13.1,0.0,0.0,0,1028.2,0,1,"",96
"2021-08-24 04:18:00",13.7,13.1,0.0,0.0,0,1028.1,0,1,"",96
"2021-08-24 04:19:00",13.7,12.9,0.0,0.0,0,1028.1,0,1,"",95
"2021-08-24 04:20:00",13.7,12.9,0.0,0.0,0,1028.1,0,1,"",95
"2021-08-24 04:21:00",13.7,12.9,0.0,0.0,0,1028.1,1,2,"",95
"2021-08-24 04:22:00",13.7,12.9,0.0,0.0,0,1028.1,2,4,"",95
"2021-08-24 04:23:00",13.7,12.9,0.0,0.0,0,1028.1,1,2,"",95
"2021-08-24 04:24:00",13.7,12.9,0.0,0.0,0,1028.1,1,2,"",95
"2021-08-24 04:25:00",13.7,12.9,0.0,0.0,0,1028.1,1,2,"",95
"2021-08-24 04:26:00",13.7,12.9,0.0,0.0,0,1028.1,0,2,"",95
"2021-08-24 04:27:00",13.8,13.0,0.0,0.0,0,1028.1,1,5,"",95
"2021-08-24 04:28:00",13.8,13.0,0.0,0.0,0,1028.1,0,1,"",95
"2021-08-24 04:29:00",13.8,13.0,0.0,0.0,0,1028.2,1,2,"",95
"2021-08-24 04:30:00",13.8,13.0,0.0,0.0,0,1028.1,1,2,"",95
"2021-08-24 04:31:00",13.8,13.0,0.0,0.0,0,1028.1,1,2,"",95
"2021-08-24 04:32:00",13.8,13.0,0.0,0.0,0,1028.1,0,1,"",95
"2021-08-24 04:33:00",13.8,13.0,0.0,0.0,0,1028.1,0,0,"",95
"2021-08-24 04:34:00",13.8,13.0,0.0,0.0,0,1028.1,1,5,"",95
"2021-08-24 04:35:00",13.8,13.0,0.0,0.0,0,1028.1,2,4,"",95
"2021-08-24 04:36:00",13.8,13.0,0.0,0.0,0,1028.2,1,3,"",95
"2021-08-24 04:37:00",13.8,13.0,0.0,0.0,0,1028.1,1,2,"",95
"2021-08-24 04:38:00",13.8,13.0,0.0,0.0,0,1028.2,2,7,"",95
"2021-08-24 04:39:00",13.8,13.0,0.0,0.0,0,1028.2,0,2,"",95
"2021-08-24 04:40:00",13.9,13.1,0.0,0.0,0,1028.2,0,1,"",95
"2021-08-24 04:41:00",13.9,13.1,0.0,0.0,0,1028.2,0,2,"",95
"2021-08-24 04:42:00",13.9,13.1,0.0,0.0,0,1028.2,3,7,"",95
"2021-08-24 04:43:00",13.9,13.1,0.0,0.0,0,1028.1,1,2,"",95
"2021-08-24 04:44:00",13.9,13.1,0.0,0.0,0,1028.2,1,2,"",95
"2021-08-24 04:45:00",13.9,13.1,0.0,0.0,0,1028.2,1,3,"",95
"2021-08-24 04:46:00",14.0,13.2,0.0,0.0,0,1028.2,1,4,"",95
"2021-08-24 04:47:00",14.0,13.2,0.0,0.0,0,1028.2,1,2,"",95
"2021-08-24 04:48:00",14.0,13.2,0.0,0.0,0,1028.1,1,2,"",95
"2021-08-24 04:49:00",14.0,13.2,0.0,0.0,0,1028.2,2,3,"",95
"2021-08-24 04:50:00",14.0,13.2,0.0,0.0,0,1028.2,0,1,"",95
"2021-08-24 04:51:00",14.0,13.0,0.0,0.0,0,1028.2,1,2,"",94
"2021-08-24 04:52:00",14.0,13.0,0.0,0.0,0,1028.2,2,3,"",94
"2021-08-24 04:53:00",14.0,13.0,0.0,0.0,0,1028.2,1,2,"",94
"2021-08-24 04:54:00",14.0,13.0,0.0,0.0,0,1028.1,1,2,"",94
"2021-08-24 04:55:00",14.1,13.1,0.0,0.0,0,1028.1,1,2,"",94
"2021-08-24 04:56:00",14.1,13.1,0.0,0.0,0,1028.1,1,1,"",94
"2021-08-24 04:57:00",14.1,13.1,0.0,0.0,0,1028.1,2,3,"",94
"2021-08-24 04:58:00",14.1,13.1,0.0,0.0,0,1028.1,1,2,"",94
"2021-08-24 04:59:00",14.1,13.1,0.0,0.0,0,1028.1,1,1,"",94
"2021-08-24 05:00:00",14.1,13.1,0.0,0.0,0,1028.1,1,2,"",94
"2021-08-24 05:01:00",14.1,13.1,0.0,0.0,0,1028.1,2,6,"",94
"2021-08-24 05:02:00",14.1,13.1,0.0,0.0,0,1028.1,1,2,"",94
"2021-08-24 05:03:00",14.1,13.1,0.0,0.0,0,1028.1,0,1,"",94
"2021-08-24 05:04:00",14.1,13.1,0.0,0.0,0,1028.1,1,3,"",94
"2021-08-24 05:05:00",14.1,13.1,0.0,0.0,0,1028.0,1,2,"",94
"2021-08-24 05:06:00",14.1,13.1,0.0,0.0,0,1028.1,1,2,"",94
"2021-08-24 05:07:00",14.2,13.2,0.0,0.0,0,1028.0,1,2,"",94
"2021-08-24 05:08:00",14.1,13.1,0.0,0.0,0,1028.0,1,2,"",94
"2021-08-24 05:09:00",14.2,13.2,0.0,0.0,0,1028.1,2,4,"",94
"2021-08-24 05:10:00",14.2,13.2,0.0,0.0,0,1028.0,1,3,"",94
"2021-08-24 05:11:00",14.2,13.2,0.0,0.0,0,1028.0,1,3,"",94
"2021-08-24 05:12:00",14.2,13.2,0.0,0.0,0,1028.0,0,1,"",94
"2021-08-24 05:13:00",14.2,13.2,0.0,0.0,0,1028.0,1,2,"",94
"2021-08-24 05:14:00",14.2,13.2,0.0,0.0,0,1028.0,1,3,"",94
"2021-08-24 05:15:00",14.2,13.2,0.0,0.0,0,1028.0,1,2,"",94
"2021-08-24 05:16:00",14.2,13.2,0.0,0.0,0,1027.9,0,1,"",94
"2021-08-24 05:17:00",14.2,13.2,0.0,0.0,0,1028.0,0,2,"",94
"2021-08-24 05:18:00",14.2,13.2,0.0,0.0,0,1028.0,1,3,"",94
"2021-08-24 05:19:00",14.2,13.2,0.0,0.0,0,1028.0,2,7,"",94
"2021-08-24 05:20:00",14.2,13.2,0.0,0.0,0,1028.0,2,4,"",94
"2021-08-24 05:21:00",14.2,13.2,0.0,0.0,0,1028.0,2,4,"",94
"2021-08-24 05:22:00",14.2,13.2,0.0,0.0,0,1027.9,1,2,"",94
"2021-08-24 05:23:00",14.2,13.2,0.0,0.0,0,1028.0,1,2,"",94
"2021-08-24 05:24:00",14.2,13.2,0.0,0.0,0,1028.0,1,1,"",94
"2021-08-24 05:25:00",14.2,13.2,0.0,0.0,0,1028.0,1,5,"",94
"2021-08-24 05:26:00",14.3,13.3,0.0,0.0,0,1028.0,1,2,"",94
"2021-08-24 05:27:00",14.3,13.3,0.0,0.0,0,1028.0,1,2,"",94
"2021-08-24 05:28:00",14.3,13.3,0.0,0.0,0,1028.0,1,3,"",94
"2021-08-24 05:29:00",14.3,13.3,0.0,0.0,0,1028.0,1,2,"",94
"2021-08-24 05:30:00",14.3,13.3,0.0,0.0,0,1028.0,0,2,"",94
"2021-08-24 05:31:00",14.3,13.3,0.0,0.0,0,1028.0,1,4,"",94
"2021-08-24 05:32:00",14.2,13.2,0.0,0.0,0,1028.0,2,4,"",94
"2021-08-24 05:33:00",14.3,13.3,0.0,0.0,0,1028.0,1,3,"",94
"2021-08-24 05:34:00",14.3,13.3,0.0,0.0,0,1028.0,1,2,"",94
"2021-08-24 05:35:00",14.3,13.3,0.0,0.0,0,1028.0,2,3,"",94
"2021-08-24 05:36:00",14.3,13.3,0.0,0.0,0,1028.1,1,2,"",94
"2021-08-24 05:37:00",14.3,13.3,0.0,0.0,0,1028.1,1,2,"",94
"2021-08-24 05:38:00",14.3,13.3,0.0,0.0,0,1028.0,0,1,"",94
"2021-08-24 05:39:00",14.3,13.3,0.0,0.0,0,1028.0,0,1,"",94
"2021-08-24 05:40:00",14.3,13.3,0.0,0.0,0,1028.1,0,1,"",94
"2021-08-24 05:41:00",14.3,13.3,0.0,0.0,0,1028.0,1,2,"",94
"2021-08-24 05:42:00",14.3,13.3,0.0,0.0,0,1028.1,0,1,"",94
"2021-08-24 05:43:00",14.3,13.3,0.0,0.0,0,1028.0,1,3,"",94
"2021-08-24 05:44:00",14.3,13.3,0.0,0.0,0,1028.0,0,1,"",94
"2021-08-24 05:45:00",14.3,13.3,0.0,0.0,0,1028.1,0,1,"",94
"2021-08-24 05:46:00",14.3,13.3,0.0,0.0,0,1028.1,1,3,"",94
"2021-08-24 05:47:00",14.3,13.3,0.0,0.0,0,1028.0,1,1,"",94
"2021-08-24 05:48:00",14.3,13.3,0.0,0.0,0,1028.0,1,2,"",94
"2021-08-24 05:49:00",14.3,13.3,0.0,0.0,0,1028.0,0,1,"",94
"2021-08-24 05:50:00",14.3,13.3,0.0,0.0,0,1028.0,1,2,"",94
"2021-08-24 05:51:00",14.3,13.3,0.0,0.0,0,1028.0,0,1,"",94
"2021-08-24 05:52:00",14.3,13.3,0.0,0.0,0,1028.0,0,1,"",94
"2021-08-24 05:53:00",14.3,13.3,0.0,0.0,0,1028.0,1,2,"",94
"2021-08-24 05:54:00",14.3,13.3,0.0,0.0,0,1028.0,1,2,"",94
"2021-08-24 05:55:00",14.3,13.3,0.0,0.0,0,1028.0,1,2,"",94
"2021-08-24 05:56:00",14.3,13.3,0.0,0.0,0,1028.0,0,1,"",94
"2021-08-24 05:57:00",14.3,13.3,0.0,0.0,0,1028.0,0,1,"",94
"2021-08-24 05:58:00",14.3,13.3,0.0,0.0,0,1028.0,0,2,"",94
"2021-08-24 05:59:00",14.3,13.3,0.0,0.0,0,1028.0,0,1,"",94
"2021-08-24 06:00:00",14.3,13.3,0.0,0.0,0,1028.1,0,1,"",94
"2021-08-24 06:01:00",14.4,13.4,0.0,0.0,0,1028.1,0,1,"",94
"2021-08-24 06:02:00",14.3,13.3,0.0,0.0,0,1028.1,1,1,"",94
"2021-08-24 06:03:00",14.3,13.3,0.0,0.0,0,1028.1,1,2,"",94
"2021-08-24 06:04:00",14.3,13.3,0.0,0.0,0,1028.1,1,2,"",94
"2021-08-24 06:05:00",14.3,13.3,0.0,0.0,0,1028.1,1,2,"",94
"2021-08-24 06:06:00",14.4,13.4,0.0,0.0,0,1028.2,0,2,"",94
"2021-08-24 06:07:00",14.4,13.4,0.0,0.0,0,1028.2,0,2,"",94
"2021-08-24 06:08:00",14.3,13.3,0.0,0.0,0,1028.1,0,1,"",94
"2021-08-24 06:09:00",14.3,13.3,0.0,0.0,0,1028.1,1,3,"",94
"2021-08-24 06:10:00",14.3,13.3,0.0,0.0,0,1028.1,1,2,"",94
"2021-08-24 06:11:00",14.4,13.4,0.0,0.0,0,1028.2,2,4,"",94
"2021-08-24 06:12:00",14.4,13.4,0.0,0.0,0,1028.1,1,2,"",94
"2021-08-24 06:13:00",14.4,13.4,0.0,0.0,0,1028.1,0,1,"",94
"2021-08-24 06:14:00",14.4,13.4,0.0,0.0,0,1028.1,0,2,"",94
"2021-08-24 06:15:00",14.4,13.4,0.0,0.0,0,1028.1,1,2,"",94
"2021-08-24 06:16:00",14.4,13.4,0.0,0.0,0,1028.1,1,4,"",94
"2021-08-24 06:17:00",14.4,13.4,0.0,0.0,0,1028.1,2,4,"",94
"2021-08-24 06:18:00",14.4,13.4,0.0,0.0,0,1028.1,2,3,"",94
"2021-08-24 06:19:00",14.4,13.4,0.0,0.0,0,1028.1,1,2,"",94
"2021-08-24 06:20:00",14.4,13.4,0.0,0.0,0,1028.1,1,2,"",94
"2021-08-24 06:21:00",14.4,13.4,0.0,0.0,0,1028.1,2,5,"",94
"2021-08-24 06:22:00",14.4,13.4,0.0,0.0,0,1028.1,1,2,"",94
"2021-08-24 06:23:00",14.4,13.4,0.0,0.0,0,1028.1,0,1,"",94
"2021-08-24 06:24:00",14.5,13.5,0.0,0.0,0,1028.1,0,1,"",94
"2021-08-24 06:25:00",14.5,13.5,0.0,0.0,0,1028.1,2,6,"",94
"2021-08-24 06:26:00",14.5,13.5,0.0,0.0,5,1028.1,1,2,"",94
"2021-08-24 06:27:00",14.5,13.5,0.0,0.0,5,1028.1,2,3,"",94
"2021-08-24 06:28:00",14.5,13.5,0.0,0.0,5,1028.2,1,2,"",94
"2021-08-24 06:29:00",14.4,13.3,0.0,0.0,5,1028.1,2,5,"",93
"2021-08-24 06:30:00",14.5,13.4,0.0,0.0,5,1028.2,1,4,"",93
"2021-08-24 06:31:00",14.5,13.4,0.0,0.0,5,1028.2,0,1,"",93
"2021-08-24 06:32:00",14.6,13.5,0.0,0.0,7,1028.2,1,2,"",93
"2021-08-24 06:33:00",14.6,13.5,0.0,0.0,7,1028.2,2,4,"",93
"2021-08-24 06:34:00",14.6,13.5,0.0,0.0,7,1028.2,0,1,"",93
"2021-08-24 06:35:00",14.6,13.5,0.0,0.0,7,1028.2,0,1,"",93
"2021-08-24 06:36:00",14.6,13.5,0.0,0.0,9,1028.2,1,2,"",93
"2021-08-24 06:37:00",14.6,13.5,0.0,0.0,9,1028.1,0,1,"",93
"2021-08-24 06:38:00",14.6,13.5,0.0,0.0,11,1028.2,1,3,"",93
"2021-08-24 06:39:00",14.6,13.5,0.0,0.0,11,1028.2,0,1,"",93
"2021-08-24 06:40:00",14.6,13.5,0.0,0.0,12,1028.2,1,3,"",93
"2021-08-24 06:41:00",14.6,13.5,0.0,0.0,12,1028.1,1,2,"",93
"2021-08-24 06:42:00",14.6,13.5,0.0,0.0,11,1028.2,1,2,"",93
"2021-08-24 06:43:00",14.6,13.5,0.0,0.0,11,1028.1,0,1,"",93
"2021-08-24 06:44:00",14.6,13.5,0.0,0.0,14,1028.1,2,4,"",93